Carbondale, IL

5:35 PM CDT on October 21, 2017 (GMT -0500)
Southern Illinois

Weather History for KMDH - April, 2014

Change the Weather History Date:

Monday, April 7, 2014

  Actual Average Record
Temperature  
Mean Temperature 47 °F -  
Max Temperature 52 °F 64 °F 85 °F (1915)
Min Temperature 42 °F 37 °F 23 °F (1971)
Degree Days  
Heating Degree Days 18    
Moisture  
Dew Point 42 °F    
Average Humidity 80    
Maximum Humidity 90    
Minimum Humidity 59    
Precipitation  
Precipitation 0.55 in - - ()
Sea Level Pressure  
Sea Level Pressure 29.68 in    
Wind  
Wind Speed 10 mph (NW)    
Max Wind Speed 18 mph    
Max Gust Speed 29 mph    
Visibility 8 miles    
Events Rain    
Averages and records for this station are not official NWS values.
T = Trace of Precipitation, MM = Missing Value Source: NWS Daily Summary

Daily Weather History Graph

Daily Weather History Graph

Search for Another Location

Airport or City:

Trip Planner

Search our weather history database for the weather conditions in past years. The results will help you decide how hot, cold, wet, or windy it might be!

Date:

Astronomy

Apr. 07, 2014 Rise Set
Actual Time 6:33 AM CDT 7:25 PM CDT
Civil Twilight 6:06 AM CDT 7:52 PM CDT
Nautical Twilight 5:35 AM CDT 8:23 PM CDT
Astronomical Twilight 5:02 AM CDT 8:56 PM CDT
Moon 12:31 PM CDT (4/7) 1:59 AM CDT (4/7)
Length of Visible Light 13h 45m
Length of Day
12h 52m
First Quarter, 53% of the Moon is Illuminated
Apr 7
First Quarter
Apr 15
Full
Apr 22
Last Quarter
Apr 29
New
May 6
First Quarter

Hourly Weather History & Observations

Time (CDT) Temp. Windchill Dew Point Humidity Pressure Visibility Wind Dir Wind Speed Gust Speed Precip Events Conditions
12:52 AM 52.0 °F - 37.9 °F 59% 29.78 in 10.0 mi NE 9.2 mph - N/A   Overcast
1:52 AM 52.0 °F - 39.0 °F 61% 29.74 in 10.0 mi East 5.8 mph - N/A   Overcast
2:52 AM 52.0 °F - 39.0 °F 61% 29.71 in 10.0 mi East 6.9 mph - N/A   Overcast
3:52 AM 52.0 °F - 39.0 °F 61% 29.70 in 10.0 mi North 3.5 mph - 0.00 in Rain Light Rain
4:52 AM 48.9 °F - 43.0 °F 80% 29.72 in 10.0 mi WNW 3.5 mph - 0.01 in Rain Light Rain
5:43 AM 48.0 °F - 43.0 °F 83% 29.70 in 4.0 mi NNW 9.2 mph - 0.07 in Rain Rain
5:52 AM 48.0 °F - 43.0 °F 83% 29.70 in 6.0 mi North 8.1 mph - 0.07 in Rain Light Rain
6:52 AM 48.0 °F - 42.1 °F 80% 29.65 in 10.0 mi North 6.9 mph - 0.01 in   Overcast
7:52 AM 48.0 °F - 42.1 °F 80% 29.62 in 10.0 mi North 5.8 mph - N/A   Overcast
8:52 AM 48.0 °F - 43.0 °F 83% 29.61 in 3.0 mi North 6.9 mph - 0.08 in Rain Rain
9:52 AM 46.9 °F - 43.0 °F 86% 29.61 in 3.0 mi NW 6.9 mph - 0.09 in Rain Rain
10:01 AM 46.9 °F - 44.1 °F 90% 29.61 in 2.0 mi WNW 9.2 mph - 0.03 in Rain Rain
10:15 AM 46.9 °F - 44.1 °F 90% 29.63 in 1.5 mi SW 3.5 mph - 0.10 in Rain Rain
10:40 AM 46.9 °F - 44.1 °F 90% 29.58 in 3.0 mi NNW 15.0 mph 24.2 mph 0.19 in Rain Rain
10:52 AM 46.9 °F - 44.1 °F 90% 29.57 in 5.0 mi NNW 17.3 mph - 0.20 in Rain Light Rain
11:52 AM 48.0 °F - 43.0 °F 83% 29.59 in 8.0 mi NW 12.7 mph 23.0 mph 0.01 in Rain Light Rain
12:52 PM 48.9 °F - 43.0 °F 80% 29.60 in 7.0 mi NW 15.0 mph 25.3 mph 0.00 in Rain Light Rain
1:18 PM 48.9 °F - 44.1 °F 83% 29.60 in 3.0 mi NW 13.8 mph 23.0 mph 0.01 in Rain Light Rain
1:25 PM 48.9 °F - 44.1 °F 83% 29.60 in 3.0 mi NNW 16.1 mph 25.3 mph 0.01 in Rain Light Rain
1:52 PM 48.9 °F - 43.0 °F 80% 29.61 in 6.0 mi NNW 18.4 mph 28.8 mph 0.01 in   Haze
2:48 PM 48.2 °F - 41.0 °F 76% 29.64 in 10.0 mi NNW 16.1 mph 26.5 mph 0.01 in Rain Light Rain
2:52 PM 48.0 °F - 41.0 °F 77% 29.64 in 10.0 mi NNW 16.1 mph 25.3 mph 0.01 in Rain Light Rain
3:17 PM 48.0 °F - 42.1 °F 80% 29.64 in 6.0 mi NW 11.5 mph 23.0 mph 0.01 in Rain Light Rain
3:52 PM 46.9 °F - 42.1 °F 83% 29.66 in 7.0 mi NW 17.3 mph - 0.03 in Rain Light Rain
3:59 PM 46.9 °F - 42.1 °F 83% 29.67 in 6.0 mi NW 13.8 mph 23.0 mph 0.01 in Rain Light Rain
4:45 PM 46.9 °F - 41.0 °F 80% 29.68 in 10.0 mi NW 17.3 mph 25.3 mph 0.02 in Rain Light Rain
4:52 PM 46.9 °F - 41.0 °F 80% 29.70 in 10.0 mi NW 13.8 mph 26.5 mph 0.02 in Rain Light Rain
5:23 PM 46.9 °F - 41.0 °F 80% 29.71 in 10.0 mi NW 15.0 mph - 0.01 in Rain Light Rain
5:45 PM 48.0 °F - 41.0 °F 77% 29.71 in 10.0 mi NW 12.7 mph 20.7 mph 0.01 in Rain Light Rain
5:52 PM 48.0 °F - 41.0 °F 77% 29.72 in 10.0 mi NW 12.7 mph - 0.01 in Rain Light Rain
6:52 PM 48.0 °F - 39.9 °F 74% 29.74 in 10.0 mi NNW 9.2 mph - 0.00 in Rain Light Rain
7:52 PM 46.9 °F - 41.0 °F 80% 29.76 in 10.0 mi West 4.6 mph - 0.00 in   Overcast
8:52 PM 46.0 °F 41.0 °F 42.1 °F 86% 29.79 in 10.0 mi WSW 10.4 mph - N/A   Mostly Cloudy
9:52 PM 45.0 °F 40.6 °F 41.0 °F 86% 29.81 in 10.0 mi SSW 8.1 mph - N/A   Clear
10:52 PM 42.1 °F 38.4 °F 39.0 °F 89% 29.80 in 10.0 mi SSW 5.8 mph - N/A   Scattered Clouds
11:52 PM 46.0 °F 41.9 °F 41.0 °F 83% 29.81 in 10.0 mi SW 8.1 mph - N/A   Overcast